[[{"header":{"parameterUnit":"m.s-1","parameterCategory":1,"la1":30.2991,"la2":30.254,"lo1":-89.0895,"lo2":-89.0444,"dy":0.0017,"dx":0.0017,"nx":28,"ny":28,"refTime":"2026-02-04T09:00:00:Z","depth":0,"parameterNumber":2,"parameterNumberName":"U-component_of_WINDS"},"data":[0,0,0,0,0,0,0,0,0,0,0,0,0,0,0,0,0,0,0,0,0,0,0,0,0,0,0,0,0,0,0,0,0,0,0,0,0,0,0,0,0,0,0,0,0,0,0,0,0,0,0,0,0,0,0,0,0,0,0.7278,0.7278,0,0.734,0.7341,0.7342,0.7321,0.732,0.7318,0.7317,0.7383,0.7386,0.7389,0,0,0,0,0,0,0,0,0,0,0,0,0,0.7142,0.7145,0.7278,0.7278,0.7279,0.734,0.7341,0.7342,0.7321,0.732,0.7318,0.7317,0.7382,0.7385,0.7389,0,0,0,0,0,0,0,0,0,0,0,0,0,0.7203,0.7146,0.7278,0.7276,0.7277,0.734,0.7341,0.7342,0.7322,0.732,0.7318,0.7316,0.7381,0.7385,0.7389,0.7458,0,0,0.7403,0.7405,0,0,0,0,0,0,0,0,0.7199,0.7208,0.7276,0.7277,0.7277,0.7321,0.7317,0.7381,0.7322,0.7305,0.7317,0.7315,0.7364,0.737,0.7386,0.7461,0.7464,0.7404,0.7406,0.7408,0.7409,0,0,0,0,0,0,0,0.7195,0.7205,0.7302,0.7277,0.7278,0.7273,0.728,0.7329,0.7345,0.7306,0.7305,0.7312,0.7364,0.7381,0.7387,0.7465,0.7403,0.7407,0.741,0.7412,0.7599,0.7602,0,0,0,0,0,0,0.719,0.7201,0.73,0.7304,0.7232,0.7277,0.7284,0.7309,0.7344,0.7348,0.7314,0.7311,0.7375,0.7382,0.7389,0.7472,0.7408,0.7412,0.7415,0.7597,0.76,0.7602,0,0,0,0,0,0,0.7187,0.7199,0.7298,0.7253,0.7265,0.7282,0.7309,0.7311,0.7329,0.735,0.7353,0.7329,0.7373,0.7383,0.7441,0.7474,0.7414,0.7419,0.7594,0.7598,0.7601,0.7638,0,0,0,0,0,0,0.7184,0.7198,0.7224,0.7253,0.7267,0.7348,0.7311,0.7314,0.7336,0.7333,0.7365,0.7369,0.7373,0.7434,0.7445,0.7479,0.7422,0.7592,0.7596,0.76,0.7634,0.7642,0.7649,0,0,0,0,0,0.7179,0.7232,0.7226,0.7238,0.73,0.735,0.7358,0.7361,0.7339,0.7365,0.7379,0.7367,0.7469,0.744,0.7453,0.7488,0.7589,0.7595,0.76,0.763,0.764,0.7649,0,0,0,0,0,0,0.7207,0.7236,0.7229,0.7293,0.7319,0.7346,0.738,0.7372,0.7405,0.7401,0.7404,0.7411,0.7471,0.7485,0.7453,0.7557,0.7526,0.7534,0.7545,0.7555,0.7562,0.7558,0.7426,0,0,0,0,0,0.7221,0.7258,0.7282,0.7337,0.735,0.7363,0.7385,0.7385,0.7412,0.7423,0.7441,0.7468,0.7506,0.7531,0.7567,0.7636,0.7643,0.7666,0.7674,0.768,0.7687,0.7725,0.7736,0.7619,0.7619,0.7619,0,0,0.7249,0.727,0.7294,0.7343,0.7363,0.7402,0.7372,0.7415,0.7445,0.743,0.7485,0.75,0.753,0.7594,0.7623,0.7608,0.7721,0.7687,0.7692,0.7695,0.7731,0.7742,0.7752,0.7623,0.7622,0.7621,0,0,0.7322,0.7341,0.7389,0.7409,0.744,0.7448,0.746,0.7488,0.7497,0.7553,0.7542,0.7578,0.7643,0.7666,0.7686,0.7767,0.7757,0.7779,0.7819,0.7856,0.7865,0.7873,0.7903,0.7913,0.7785,0.7785,0.7785,0,0.7354,0.7412,0.7414,0.7458,0.748,0.7468,0.7517,0.7537,0.7578,0.7594,0.7577,0.7658,0.7678,0.7747,0.7767,0.7783,0.7797,0.7775,0.7863,0.7872,0.7879,0.7907,0.7918,0.7788,0.7787,0.7787,0.7787,0,0.745,0.7491,0.7526,0.7566,0.7592,0.7638,0.7647,0.7674,0.7672,0.7682,0.7739,0.7762,0.7803,0.7819,0.7818,0.7888,0.7878,0.7862,0.7831,0.7893,0.7919,0.793,0.7791,0.779,0.779,0.7789,0,0,0.7542,0.7582,0.7595,0.7613,0.7646,0.7678,0.7724,0.7764,0.7786,0.7815,0.7854,0.791,0.7895,0.7918,0.7919,0.7951,0.8015,0.7931,0.7932,0.7946,0.8094,0.8106,0.8118,0.8008,0.801,0.8012,0.8091,0,0.7618,0.7698,0.7701,0.7774,0.7812,0.7801,0.7841,0.7866,0.7877,0.7912,0.7924,0.7963,0.7941,0.7954,0.7986,0.8,0.8044,0.7994,0.8045,0.8047,0.8038,0.8132,0.8145,0.8219,0.8102,0.8104,0.8105,0,0.7716,0.7748,0.7825,0.7853,0.7869,0.7905,0.7941,0.7974,0.8003,0.8008,0.8034,0.803,0.8078,0.8045,0.8111,0.8077,0.8098,0.8108,0.8111,0.8117,0.808,0.814,0.8242,0.8253,0.8121,0.812,0.8119,0,0.7776,0.7838,0.7892,0.7908,0.7942,0.7967,0.7983,0.8009,0.8033,0.8065,0.808,0.8118,0.8138,0.8168,0.8175,0.815,0.8241,0.8209,0.8247,0.8247,0.8267,0.8266,0.8375,0.828,0.828,0.828,0.828,0,0.786,0.7908,0.7919,0.7953,0.8006,0.8009,0.8062,0.8076,0.8099,0.8136,0.8129,0.8163,0.817,0.8206,0.8212,0.8266,0.8275,0.8281,0.8282,0.8282,0.8282,0.8296,0.8291,0.8283,0.8282,0.8282,0.8281,0,0.7936,0.7945,0.8004,0.8031,0.8039,0.8077,0.8101,0.8133,0.8143,0.8189,0.82,0.8216,0.8258,0.8268,0.8318,0.8322,0.8386,0.8382,0.8376,0.8376,0.8414,0.8411,0.8537,0.8553,0.8448,0.8449,0.845,0,0.7989,0.8025,0.8056,0.808,0.8096,0.8134,0.8158,0.8163,0.8189,0.8224,0.8252,0.8293,0.8326,0.8394,0.8411,0.8449,0.8446,0.8488,0.8452,0.8451,0.8447,0.8445,0.8449,0.8494,0.8496,0.8497,0.8497,0,0.8082,0.8085,0.8119,0.8156,0.8185,0.8214,0.8242,0.8262,0.8271,0.83,0.8342,0.8368,0.8419,0.846,0.8499,0.8515,0.8508,0.8508,0.8519,0.852,0.8515,0.8518,0.8395,0.8505,0.8505,0.8504,0.8504,0.8503,0.8148,0.818,0.8207,0.8246,0.8267,0.8294,0.8325,0.8339,0.8375,0.8416,0.8417,0.8464,0.8492,0.8543,0.8562,0.8599,0.8586,0.8602,0.8606,0.861,0.8614,0.8509,0.8606,0.8606,0.8606,0.8605,0.8605,0,0.8241,0.8258,0.8294,0.8333,0.8364,0.8354,0.8384,0.8411,0.8452,0.8478,0.8511,0.856,0.86,0.862,0.866,0.8686,0.8683,0.8696,0.8694,0.8698,0.8623,0.8609,0.8697,0.8697,0.8697,0.8697,0.8697,0.8697,0.8293,0.8346,0.8353,0.8417,0.8434,0.8479,0.8498,0.8522,0.8543,0.8599,0.8632,0.8644,0.8668,0.871,0.8746,0.8751,0.8766,0.878,0.8784,0.8713,0.8703,0.8695,0.8682,0.8784,0.8784,0.8856,0.8857,0.8857]},{"header":{"parameterUnit":"m.s-1","parameterCategory":1,"la1":30.2991,"la2":30.254,"lo1":-89.0895,"lo2":-89.0444,"dy":0.0017,"dx":0.0017,"nx":28,"ny":28,"refTime":"2026-02-04T09:00:00:Z","depth":0,"parameterNumber":3,"parameterNumberName":"V-component_of_WINDS"},"data":[0,0,0,0,0,0,0,0,0,0,0,0,0,0,0,0,0,0,0,0,0,0,0,0,0,0,0,0,0,0,0,0,0,0,0,0,0,0,0,0,0,0,0,0,0,0,0,0,0,0,0,0,0,0,0,0,0,0,0.7332,0.7332,0,0.7374,0.7374,0.7375,0.7358,0.7357,0.7356,0.7355,0.7401,0.7403,0.7406,0,0,0,0,0,0,0,0,0,0,0,0,0,0.724,0.7242,0.7332,0.7332,0.7333,0.7374,0.7374,0.7375,0.7358,0.7357,0.7355,0.7354,0.7401,0.7403,0.7406,0,0,0,0,0,0,0,0,0,0,0,0,0,0.7281,0.7243,0.7332,0.7329,0.7329,0.7374,0.7374,0.7375,0.7358,0.7357,0.7355,0.7354,0.74,0.7403,0.7406,0.7456,0,0,0.7416,0.7417,0,0,0,0,0,0,0,0,0.7279,0.7284,0.7329,0.733,0.733,0.7359,0.7359,0.7402,0.7359,0.7347,0.7355,0.7353,0.7389,0.7393,0.7404,0.7458,0.746,0.7416,0.7418,0.742,0.7421,0,0,0,0,0,0,0,0.7276,0.7282,0.7349,0.733,0.733,0.7327,0.7331,0.7367,0.7376,0.7348,0.7347,0.7352,0.7389,0.7401,0.7405,0.7461,0.7416,0.7419,0.7421,0.7422,0.7559,0.7561,0,0,0,0,0,0,0.7273,0.728,0.7347,0.735,0.73,0.733,0.7335,0.7351,0.7376,0.7378,0.7353,0.7351,0.7396,0.7401,0.7407,0.7468,0.742,0.7423,0.7425,0.7558,0.756,0.7562,0,0,0,0,0,0,0.7271,0.7279,0.7346,0.7315,0.7323,0.7333,0.7352,0.7353,0.7365,0.7379,0.7381,0.7364,0.7395,0.7402,0.7444,0.7469,0.7424,0.7427,0.7556,0.7558,0.7561,0.759,0,0,0,0,0,0,0.7268,0.7278,0.7297,0.7315,0.7325,0.7381,0.7353,0.7355,0.737,0.7368,0.739,0.7392,0.7394,0.7439,0.7447,0.7473,0.743,0.7554,0.7557,0.756,0.7587,0.7593,0.7598,0,0,0,0,0,0.7265,0.7304,0.7298,0.7306,0.7348,0.7383,0.7388,0.7389,0.7372,0.7392,0.7401,0.7392,0.7464,0.7444,0.7452,0.7479,0.7552,0.7556,0.756,0.7584,0.7592,0.7598,0,0,0,0,0,0,0.7289,0.7306,0.73,0.7345,0.7363,0.738,0.7404,0.7397,0.742,0.7417,0.7418,0.7423,0.7467,0.7477,0.7453,0.7529,0.7506,0.7512,0.7521,0.7529,0.7534,0.7532,0.7432,0,0,0,0,0,0.7299,0.7325,0.7339,0.7378,0.7387,0.7394,0.741,0.7408,0.7427,0.7434,0.7447,0.7466,0.7493,0.7511,0.7537,0.7587,0.7593,0.761,0.7616,0.7621,0.7626,0.7655,0.7663,0.7574,0.7574,0.7574,0,0,0.7322,0.7334,0.7351,0.7384,0.7397,0.7425,0.7401,0.7431,0.7452,0.7439,0.748,0.7489,0.7511,0.7557,0.7578,0.7567,0.7652,0.7626,0.7629,0.7632,0.7659,0.7668,0.7675,0.7577,0.7576,0.7576,0,0,0.7377,0.7389,0.7423,0.7436,0.7456,0.746,0.7468,0.7487,0.7492,0.7532,0.7523,0.7549,0.7596,0.7611,0.7626,0.7686,0.7679,0.7695,0.7726,0.7753,0.776,0.7767,0.779,0.7798,0.77,0.77,0.77,0,0.7403,0.7444,0.7442,0.7473,0.7488,0.7476,0.7511,0.7525,0.7553,0.7564,0.755,0.7609,0.7622,0.7673,0.7687,0.7699,0.7709,0.7693,0.7759,0.7766,0.7771,0.7793,0.7802,0.7702,0.7701,0.7701,0.7701,0,0.7475,0.7503,0.7529,0.7555,0.7572,0.7606,0.7609,0.7628,0.7625,0.7631,0.7672,0.7688,0.7717,0.7728,0.7726,0.7779,0.7771,0.7758,0.7735,0.7782,0.7802,0.7811,0.7704,0.7704,0.7703,0.7703,0,0,0.7548,0.7572,0.7581,0.7593,0.7614,0.7636,0.7669,0.7696,0.7712,0.7732,0.776,0.7799,0.7788,0.7804,0.7803,0.7827,0.7876,0.7812,0.7812,0.7824,0.7936,0.7946,0.7956,0.787,0.7872,0.7873,0.7935,0,0.7606,0.7662,0.7661,0.7714,0.7741,0.773,0.7758,0.7775,0.7781,0.7806,0.7813,0.7841,0.7823,0.7832,0.7855,0.7865,0.7898,0.786,0.7898,0.79,0.7895,0.7967,0.7978,0.8035,0.7942,0.7944,0.7945,0,0.7681,0.7702,0.7758,0.7774,0.7786,0.7811,0.7836,0.7859,0.7878,0.7881,0.7898,0.7894,0.7928,0.7903,0.7951,0.7925,0.794,0.7947,0.795,0.7955,0.7926,0.7975,0.8054,0.8063,0.7957,0.7956,0.7955,0,0.7731,0.7773,0.7811,0.7822,0.7842,0.786,0.787,0.7887,0.7903,0.7925,0.7936,0.7962,0.7977,0.7998,0.8001,0.7982,0.805,0.8024,0.8055,0.8055,0.8071,0.807,0.8155,0.8078,0.8078,0.8078,0.8078,0,0.7797,0.7831,0.7834,0.7858,0.7897,0.7895,0.7934,0.7942,0.7957,0.7983,0.7974,0.7999,0.8001,0.8027,0.803,0.807,0.8077,0.8081,0.8082,0.8083,0.8083,0.8094,0.8091,0.808,0.808,0.8079,0.8079,0,0.7859,0.7862,0.7904,0.7919,0.7923,0.7952,0.7965,0.7989,0.7993,0.8027,0.8034,0.8043,0.8073,0.8077,0.8113,0.8115,0.8164,0.8159,0.8157,0.8157,0.8188,0.8186,0.8284,0.8298,0.8211,0.8212,0.8213,0,0.7902,0.7928,0.7946,0.7962,0.7972,0.7999,0.8015,0.8014,0.8032,0.8055,0.8076,0.8105,0.8128,0.8177,0.8187,0.8215,0.8212,0.8244,0.8216,0.8217,0.8214,0.8213,0.8217,0.8251,0.8252,0.8252,0.8253,0,0.7977,0.7977,0.8001,0.8025,0.8044,0.8063,0.8081,0.8096,0.8097,0.8118,0.8148,0.8166,0.8201,0.8231,0.8258,0.8269,0.8262,0.8261,0.827,0.8273,0.8271,0.8274,0.8174,0.826,0.8259,0.8259,0.8258,0.8258,0.8032,0.8055,0.8071,0.8098,0.8111,0.8128,0.8151,0.8158,0.8183,0.8211,0.8209,0.8243,0.8261,0.8296,0.8309,0.8336,0.8326,0.8338,0.8342,0.8345,0.8349,0.8265,0.8341,0.8341,0.834,0.834,0.834,0,0.8109,0.8118,0.8142,0.8167,0.8188,0.8178,0.8197,0.8216,0.8245,0.8262,0.8285,0.832,0.8348,0.836,0.8388,0.8407,0.8405,0.8415,0.8415,0.8418,0.8356,0.8346,0.8417,0.8417,0.8417,0.8417,0.8417,0.8417,0.8151,0.819,0.8191,0.8237,0.8246,0.8278,0.829,0.8306,0.832,0.8359,0.8382,0.8389,0.8404,0.8433,0.8459,0.8462,0.8474,0.8485,0.8487,0.8429,0.8422,0.8414,0.8405,0.8487,0.8488,0.8547,0.8547,0.8548]}]]